Location: Mercogliano
(40.9167°N, 14.7333°E)
Time: 07:31:15
(UTC+00:00)

Cosmos 2150 Rocket - Pass Details

Date: 25 January 2021
Orbit: 748 x 808 km, 74.0° (Epoch: 04 March)

Event Time Altitude Azimuth Distance (km) Brightness Sun altitude
Exits shadow 03:58:50 - 356° (N) 2,663 6.7 -26.2°
Reaches altitude 10° 03:59:46 10° 0° (N) 2,351 6.5 -26.0°
Maximum altitude 04:04:29 31° 62° (ENE) 1,368 5.8 -25.1°
Drops below altitude 10° 04:09:14 10° 124° (SE) 2,370 7.3 -24.2°
Sets 04:11:55 0° 134° (SE) 3,303 8.0 -23.7°
